DELTA 1 DEB, 13529

Orbit data source: Space-Track

DELTA 1 DEB, 13529 is space debris in LEO originally from a launch on Thu, 29 Jul 1976 UTC launched from the Air Force Western Test Range (AFWTR). Debris objects in space refer to the collection of defunct objects orbiting the Earth. Examples of debris include non-operational satellites, rocket bodies, and fragments generated from explosions, collisions, or faulty payload assembly.

Loading next visibility...
Identifier
13529, 1976-077EB
Orbit
LEO
Country
Flag of USUS
Related business
Manufacturer
Unknown
Mission
Spacecraft
Bus & Motor
Unknown
Mass
Unknown
Launch date (UTC)
1976-07-29 (49 years ago)
Launch vehicle
Unknown
Launch site
Air Force Western Test Range (AFWTR)
Object type
Payload
Rocket body
Debris
Shape & HBR
Unknown shape, 0.1 m
Radar Cross Section
Small (<0.1 m²)

Expand to show TLE details & history
Last TLE update: 5 days ago

TLE from 5 days ago
0 DELTA 1 DEB
1 13529U 76077EB  25288.25488953 -.00000238  00000-0 -31549-2 0  9995
2 13529 101.8753  23.9004 0380296  41.6936 344.8695 11.66077870913333
Epoch: 2025-10-15T06:07Z
TLE epoch observation values (Epoch: 2025-10-15T06:07:02.455Z)
Latitude
24.81954°
Longitude
-97.44487°
Altitude
1,538.256 km
Speed
7.228 km/s
True Right ascension
01h 13m 23s
True Declination
24° 42' 06"
Sunlit
Object was in full shadow at epoch
Visualization orbit readout
Latitude
Unknown
Longitude
Unknown
Altitude
Unknown
Speed
Unknown
Apparent Right ascension
Unknown
Apparent Declination
Unknown
Sunlit
N/A
Visualization observer readout
Local Sidereal Time
13:55:57
Azimuth
Unknown
Elevation
Unknown
Doppler factor
Unknown
Orbital elements
Apogee altitude
2,146.374 km
Perigee altitude
1,521.761 km
Semi-major axis
8,212.205 km
Eccentricity
0.03803
Inclination
101.8753°
RAAN
23.9004°
Arg. of periapsis
41.6936°
True anomaly
343.67751°
Mean anomaly
344.8695°
Eccentric anomaly
344.27911°
Mean motion
2.91644 °/min
Orbital period
123.44 mins
BSTAR
-0.0031549
Loading maneuver chart data...
Computing Atmospheric mass density...
Loading historical data...
Loading historical data...
Loading historical data...
Loading historical data...
Loading historical data...
Loading historical data...
Loading historical data...

Documentation

Showing up to 5 results
|